Flag for Germany Weather past 2 weeks in Rodgau, Hesse, Germany

Now
48 °F

Overcast.


Feels Like: 44 °F
Forecast: 38 / 48 °F
Wind: 10 mph from Southwest

Location: Frankfurt / M-Flughafen

Current Time: Dec 23, 2014 at 5:04:04 AM

Latest Report: Dec 23, 2014 at 3:00 AM


Visibility: 31 mi

Pressure: 30.21 "Hg

Humidity: 83%

Dew point: 43 °F

Location of RodgauLocation

Historic Weather in Rodgau — Graph

°F

Rodgau temperature yesterday

Maximum temperature yesterday: 48 °F (at 9:00 PM)
Minimum temperature yesterday: 45 °F (at 3:00 AM)
Average temperature yesterday: 46 °F

Past Weeks' High & Low Weather Summary

 TemperatureHumidityPressure
High57 °F (Dec 18, 9:00 PM)100% (Dec 8, 6:00 AM)30.49 "Hg (Dec 8, 6:00 AM)
Low29 °F (Dec 8, 11:00 PM)67% (Dec 12, 8:00 PM)29.62 "Hg (Dec 12, 6:00 PM)
Average42 °F89%30.07 "Hg
* Reported Dec 8 3:00 AM — Dec 23 3:00 AM, Rodgau, Weather by CustomWeather, © 2014

Note: Actual official high and low records may vary slightly from our data, if they occured in-between our weather recording intervals... More about our weather records

Advertising

Rodgau weather history for previous 24 hours

 ConditionsComfort  
Time TempWeatherWind HumidityBarometerVisibility
3:00 AM
Dec 23
48 °FOvercast.10 mph83%30.21 "Hg31 mi
2:00 AM48 °FOvercast.9 mph84%30.21 "Hg31 mi
1:00 AM47 °FOvercast.8 mph84%30.22 "Hg31 mi
12:00 AM47 °FOvercast.7 mph83%30.21 "Hg31 mi
11:00 PM
Dec 22
47 °FOvercast.9 mph83%30.21 "Hg31 mi
10:00 PM47 °FPassing clouds.10 mph83%30.21 "Hg31 mi
9:00 PM48 °FOvercast.10 mph81%30.20 "Hg31 mi
8:00 PM47 °FOvercast.10 mph81%30.22 "Hg28 mi
7:00 PM47 °FOvercast.10 mph81%30.22 "Hg25 mi
6:00 PM47 °FOvercast.9 mph82%30.22 "Hg25 mi
5:00 PM47 °FOvercast.8 mph80%30.22 "Hg25 mi
3:00 PM47 °FOvercast.10 mph78%30.22 "Hg22 mi
2:00 PM47 °FOvercast.12 mph77%30.23 "Hg25 mi
1:00 PM46 °FOvercast.12 mph78%30.26 "Hg25 mi
12:00 PM46 °FOvercast.14 mph77%30.27 "Hg19 mi
11:00 AM46 °FOvercast.14 mph80%30.27 "Hg19 mi
9:00 AM46 °FOvercast.14 mph79%30.27 "Hg31 mi
8:00 AM46 °FOvercast.15 mph79%30.27 "Hg31 mi
7:00 AM46 °FOvercast.15 mph78%30.26 "Hg31 mi
6:00 AM45 °FOvercast.15 mph77%30.27 "Hg31 mi
5:00 AM45 °FOvercast.13 mph77%30.28 "Hg31 mi
Weather by CustomWeather, © 2014

See weather overviewHow to use our weather pages